Time,TemperatureF,DewpointF,PressureIn,WindDirection,WindDirectionDegrees,WindSpeedMPH,WindSpeedGustMPH,Humidity,HourlyPrecipIn,Conditions,Clouds,dailyrainin,SoftwareType,DateUTC
2013-03-09 00:00:00,33.7,25.0,30.12,NNW,348,1.0,5.0,70,0.00,,CLR,0.03,VWS V13.01,2013-03-09 05:00:00,
2013-03-09 00:05:00,33.5,25.1,30.12,North,349,1.0,2.0,71,0.00,,CLR,0.00,VWS V13.01,2013-03-09 05:05:00,
2013-03-09 00:10:00,33.3,24.6,30.13,North,355,1.0,4.0,70,0.00,,CLR,0.00,VWS V13.01,2013-03-09 05:10:00,
2013-03-09 00:15:00,33.4,24.7,30.13,NNW,347,0.0,5.0,70,0.00,,CLR,0.00,VWS V13.01,2013-03-09 05:15:00,
2013-03-09 00:20:00,33.4,24.3,30.13,NNW,347,2.0,5.0,69,0.00,,CLR,0.00,VWS V13.01,2013-03-09 05:20:00,
2013-03-09 00:26:00,33.2,24.5,30.13,NNW,347,0.0,5.0,70,0.00,,CLR,0.00,VWS V13.01,2013-03-09 05:26:00,
2013-03-09 00:31:00,33.0,24.3,30.13,NNW,347,1.0,5.0,70,0.00,,CLR,0.00,VWS V13.01,2013-03-09 05:31:00,
2013-03-09 00:36:00,32.9,24.2,30.13,NNW,346,3.0,4.0,70,0.00,,CLR,0.00,VWS V13.01,2013-03-09 05:36:00,
2013-03-09 00:41:00,32.8,24.1,30.13,NNW,346,1.0,4.0,70,0.00,,CLR,0.00,VWS V13.01,2013-03-09 05:41:00,
2013-03-09 00:46:00,32.8,24.5,30.13,NNW,346,1.0,4.0,71,0.00,,CLR,0.00,VWS V13.01,2013-03-09 05:46:00,
2013-03-09 00:51:00,32.7,24.4,30.13,NNE,19,2.0,4.0,71,0.00,,CLR,0.00,VWS V13.01,2013-03-09 05:51:00,
2013-03-09 00:56:00,32.7,24.4,30.13,North,355,0.0,4.0,71,0.00,,CLR,0.00,VWS V13.01,2013-03-09 05:56:00,
2013-03-09 01:01:00,32.6,24.2,30.14,NW,325,0.0,5.0,71,0.00,,CLR,0.00,VWS V13.01,2013-03-09 06:01:00,
2013-03-09 01:06:00,32.5,24.2,30.14,NW,325,0.0,2.0,71,0.00,,CLR,0.00,VWS V13.01,2013-03-09 06:06:00,
2013-03-09 01:11:00,32.5,23.8,30.13,NNE,22,0.0,3.0,70,0.00,,CLR,0.00,VWS V13.01,2013-03-09 06:11:00,
2013-03-09 01:16:00,32.5,23.5,30.13,NNE,22,0.0,3.0,69,0.00,,CLR,0.00,VWS V13.01,2013-03-09 06:16:00,
2013-03-09 01:21:00,32.5,23.8,30.13,North,9,0.0,3.0,70,0.00,,CLR,0.00,VWS V13.01,2013-03-09 06:21:00,
2013-03-09 01:26:00,32.5,23.8,30.13,NNE,20,0.0,4.0,70,0.00,,CLR,0.00,VWS V13.01,2013-03-09 06:26:00,
2013-03-09 01:31:00,32.5,23.5,30.13,NNE,21,3.0,4.0,69,0.00,,CLR,0.00,VWS V13.01,2013-03-09 06:31:00,
2013-03-09 01:36:00,32.6,23.2,30.14,NNE,18,0.0,3.0,68,0.00,,CLR,0.00,VWS V13.01,2013-03-09 06:36:00,
2013-03-09 01:41:00,32.5,23.5,30.13,North,360,0.0,3.0,69,0.00,,CLR,0.00,VWS V13.01,2013-03-09 06:41:00,
2013-03-09 01:46:00,32.5,23.5,30.13,North,360,0.0,3.0,69,0.00,,CLR,0.00,VWS V13.01,2013-03-09 06:46:00,
2013-03-09 01:51:00,32.3,22.9,30.13,North,360,0.0,3.0,68,0.00,,CLR,0.00,VWS V13.01,2013-03-09 06:51:00,
2013-03-09 01:56:00,32.2,23.2,30.13,North,360,0.0,3.0,69,0.00,,CLR,0.00,VWS V13.01,2013-03-09 06:56:00,
2013-03-09 02:01:00,32.0,23.0,30.13,North,360,0.0,3.0,69,0.01,,CLR,0.01,VWS V13.01,2013-03-09 07:01:00,
2013-03-09 02:06:00,31.9,22.9,30.13,North,360,0.0,2.0,69,0.01,,CLR,0.01,VWS V13.01,2013-03-09 07:06:00,
2013-03-09 02:11:00,31.6,22.6,30.13,North,360,0.0,2.0,69,0.01,,CLR,0.01,VWS V13.01,2013-03-09 07:11:00,
2013-03-09 02:16:00,31.4,22.4,30.13,North,360,0.0,2.0,69,0.01,,CLR,0.01,VWS V13.01,2013-03-09 07:16:00,
2013-03-09 02:21:00,31.3,22.7,30.13,North,360,0.0,2.0,70,0.01,,CLR,0.01,VWS V13.01,2013-03-09 07:21:00,
2013-03-09 02:26:00,31.1,22.5,30.13,North,360,1.0,3.0,70,0.01,,CLR,0.01,VWS V13.01,2013-03-09 07:26:00,
2013-03-09 02:31:00,30.9,22.6,30.13,North,360,0.0,0.0,71,0.01,,CLR,0.01,VWS V13.01,2013-03-09 07:31:00,
2013-03-09 02:37:00,30.7,22.4,30.13,North,360,0.0,1.0,71,0.01,,CLR,0.01,VWS V13.01,2013-03-09 07:37:00,
2013-03-09 02:42:00,30.6,22.3,30.13,North,360,0.0,2.0,71,0.01,,CLR,0.01,VWS V13.01,2013-03-09 07:42:00,
2013-03-09 02:47:00,30.5,22.6,30.13,North,360,0.0,2.0,72,0.01,,CLR,0.01,VWS V13.01,2013-03-09 07:47:00,
2013-03-09 02:52:00,30.3,22.4,30.13,North,360,0.0,2.0,72,0.01,,CLR,0.01,VWS V13.01,2013-03-09 07:52:00,
2013-03-09 02:57:00,30.2,22.3,30.13,North,360,0.0,2.0,72,0.01,,CLR,0.01,VWS V13.01,2013-03-09 07:57:00,
2013-03-09 03:02:00,30.1,22.2,30.13,North,360,0.0,0.0,72,0.01,,CLR,0.01,VWS V13.01,2013-03-09 08:02:00,
2013-03-09 03:07:00,30.0,22.1,30.13,North,360,0.0,1.0,72,0.00,,CLR,0.01,VWS V13.01,2013-03-09 08:07:00,
2013-03-09 03:12:00,29.9,22.0,30.13,North,360,0.0,2.0,72,0.00,,CLR,0.01,VWS V13.01,2013-03-09 08:12:00,
2013-03-09 03:17:00,30.0,22.1,30.12,North,360,0.0,2.0,72,0.00,,CLR,0.01,VWS V13.01,2013-03-09 08:17:00,
2013-03-09 03:22:00,29.9,22.0,30.12,North,360,0.0,2.0,72,0.00,,CLR,0.01,VWS V13.01,2013-03-09 08:22:00,
2013-03-09 03:27:00,29.9,22.0,30.13,North,360,0.0,2.0,72,0.00,,CLR,0.01,VWS V13.01,2013-03-09 08:27:00,
2013-03-09 03:32:00,29.7,22.1,30.12,North,360,0.0,0.0,73,0.00,,CLR,0.01,VWS V13.01,2013-03-09 08:32:00,
2013-03-09 03:37:00,29.6,22.0,30.13,North,360,1.0,2.0,73,0.00,,CLR,0.01,VWS V13.01,2013-03-09 08:37:00,
2013-03-09 03:42:00,29.5,21.9,30.13,North,360,0.0,3.0,73,0.00,,CLR,0.01,VWS V13.01,2013-03-09 08:42:00,
2013-03-09 03:47:00,29.4,21.8,30.13,North,360,1.0,3.0,73,0.00,,CLR,0.01,VWS V13.01,2013-03-09 08:47:00,
2013-03-09 03:52:00,29.4,22.1,30.13,North,360,1.0,3.0,74,0.00,,CLR,0.01,VWS V13.01,2013-03-09 08:52:00,
2013-03-09 03:57:00,29.4,21.8,30.13,North,360,0.0,3.0,73,0.00,,CLR,0.01,VWS V13.01,2013-03-09 08:57:00,
2013-03-09 04:02:00,29.5,21.9,30.14,North,360,0.0,1.0,73,0.00,,CLR,0.01,VWS V13.01,2013-03-09 09:02:00,
2013-03-09 04:07:00,29.6,22.0,30.14,North,360,0.0,2.0,73,0.00,,CLR,0.01,VWS V13.01,2013-03-09 09:07:00,
2013-03-09 04:12:00,29.6,22.0,30.14,North,360,0.0,2.0,73,0.00,,CLR,0.01,VWS V13.01,2013-03-09 09:12:00,
2013-03-09 04:18:00,29.6,22.4,30.14,North,360,0.0,2.0,74,0.00,,CLR,0.01,VWS V13.01,2013-03-09 09:18:00,
2013-03-09 04:23:00,29.4,22.1,30.15,North,360,0.0,3.0,74,0.00,,CLR,0.01,VWS V13.01,2013-03-09 09:23:00,
2013-03-09 04:28:00,29.5,22.2,30.15,NNW,340,0.0,4.0,74,0.00,,CLR,0.01,VWS V13.01,2013-03-09 09:28:00,
2013-03-09 04:33:00,29.5,22.6,30.15,NNE,13,2.0,2.0,75,0.00,,CLR,0.01,VWS V13.01,2013-03-09 09:33:00,
2013-03-09 04:38:00,29.5,22.6,30.15,North,5,0.0,3.0,75,0.00,,CLR,0.01,VWS V13.01,2013-03-09 09:38:00,
2013-03-09 04:43:00,29.5,22.2,30.16,North,5,0.0,3.0,74,0.00,,CLR,0.01,VWS V13.01,2013-03-09 09:43:00,
2013-03-09 04:48:00,29.4,22.5,30.16,North,5,1.0,3.0,75,0.00,,CLR,0.01,VWS V13.01,2013-03-09 09:48:00,
2013-03-09 04:53:00,29.4,22.5,30.16,North,10,2.0,4.0,75,0.00,,CLR,0.01,VWS V13.01,2013-03-09 09:53:00,
2013-03-09 04:58:00,29.4,22.5,30.16,NNE,30,0.0,5.0,75,0.00,,CLR,0.01,VWS V13.01,2013-03-09 09:58:00,
2013-03-09 05:03:00,29.5,22.6,30.16,NNE,13,3.0,3.0,75,0.00,,CLR,0.01,VWS V13.01,2013-03-09 10:03:00,
2013-03-09 05:08:00,29.5,22.6,30.16,North,5,1.0,3.0,75,0.00,,CLR,0.01,VWS V13.01,2013-03-09 10:08:00,
2013-03-09 05:13:00,29.5,22.2,30.16,NNW,331,0.0,4.0,74,0.00,,CLR,0.01,VWS V13.01,2013-03-09 10:13:00,
2013-03-09 05:18:00,29.6,22.4,30.16,NNW,331,0.0,4.0,74,0.00,,CLR,0.01,VWS V13.01,2013-03-09 10:18:00,
2013-03-09 05:23:00,29.5,21.9,30.16,NNW,331,0.0,4.0,73,0.00,,CLR,0.01,VWS V13.01,2013-03-09 10:23:00,
2013-03-09 05:28:00,29.5,21.9,30.16,NNW,331,1.0,4.0,73,0.00,,CLR,0.01,VWS V13.01,2013-03-09 10:28:00,
2013-03-09 05:33:00,29.4,21.8,30.16,NNW,331,2.0,2.0,73,0.00,,CLR,0.01,VWS V13.01,2013-03-09 10:33:00,
2013-03-09 05:38:00,29.4,21.8,30.17,NNW,331,0.0,2.0,73,0.00,,CLR,0.01,VWS V13.01,2013-03-09 10:38:00,
2013-03-09 05:43:00,29.3,22.1,30.17,NNW,347,1.0,2.0,74,0.00,,CLR,0.01,VWS V13.01,2013-03-09 10:43:00,
2013-03-09 05:48:00,29.2,21.6,30.17,North,10,0.0,3.0,73,0.00,,CLR,0.01,VWS V13.01,2013-03-09 10:48:00,
2013-03-09 05:54:00,29.1,21.5,30.17,North,10,0.0,3.0,73,0.00,,CLR,0.01,VWS V13.01,2013-03-09 10:54:00,
2013-03-09 05:59:00,29.0,21.8,30.17,North,10,0.0,3.0,74,0.00,,CLR,0.01,VWS V13.01,2013-03-09 10:59:00,
2013-03-09 06:04:00,28.9,21.7,30.17,North,10,0.0,1.0,74,0.00,,CLR,0.01,VWS V13.01,2013-03-09 11:04:00,
2013-03-09 06:09:00,28.8,21.6,30.17,North,5,0.0,2.0,74,0.00,,CLR,0.01,VWS V13.01,2013-03-09 11:09:00,
2013-03-09 06:14:00,28.7,21.5,30.18,NE,36,0.0,4.0,74,0.00,,CLR,0.01,VWS V13.01,2013-03-09 11:14:00,
2013-03-09 06:19:00,28.6,21.7,30.18,NE,36,0.0,4.0,75,0.00,,CLR,0.01,VWS V13.01,2013-03-09 11:19:00,
2013-03-09 06:24:00,28.6,21.7,30.18,NNE,31,0.0,4.0,75,0.00,,CLR,0.01,VWS V13.01,2013-03-09 11:24:00,
2013-03-09 06:29:00,28.7,21.8,30.18,NNE,31,2.0,4.0,75,0.00,,CLR,0.01,VWS V13.01,2013-03-09 11:29:00,
2013-03-09 06:34:00,28.7,21.8,30.18,NNE,31,0.0,1.0,75,0.00,,CLR,0.01,VWS V13.01,2013-03-09 11:34:00,
2013-03-09 06:39:00,28.6,21.7,30.18,NNE,31,0.0,1.0,75,0.00,,CLR,0.01,VWS V13.01,2013-03-09 11:39:00,
2013-03-09 06:44:00,28.5,21.6,30.19,North,355,0.0,2.0,75,0.00,,CLR,0.01,VWS V13.01,2013-03-09 11:44:00,
2013-03-09 06:49:00,28.4,21.5,30.19,North,360,0.0,2.0,75,0.00,,CLR,0.01,VWS V13.01,2013-03-09 11:49:00,
2013-03-09 06:54:00,28.5,21.6,30.20,North,360,0.0,2.0,75,0.00,,CLR,0.01,VWS V13.01,2013-03-09 11:54:00,
2013-03-09 06:59:00,28.7,21.8,30.20,NNE,26,2.0,3.0,75,0.00,,CLR,0.01,VWS V13.01,2013-03-09 11:59:00,
2013-03-09 07:04:00,29.0,22.1,30.20,NNE,25,2.0,2.0,75,0.00,,CLR,0.01,VWS V13.01,2013-03-09 12:04:00,
2013-03-09 07:09:00,29.4,22.5,30.20,NNE,25,0.0,2.0,75,0.00,,CLR,0.01,VWS V13.01,2013-03-09 12:09:00,
2013-03-09 07:14:00,29.7,22.4,30.21,NNE,25,1.0,3.0,74,0.00,,CLR,0.01,VWS V13.01,2013-03-09 12:14:00,
2013-03-09 07:19:00,30.1,22.5,30.21,NNE,21,2.0,5.0,73,0.00,,CLR,0.01,VWS V13.01,2013-03-09 12:19:00,
2013-03-09 07:24:00,30.5,22.6,30.21,NNE,31,1.0,5.0,72,0.00,,CLR,0.01,VWS V13.01,2013-03-09 12:24:00,
2013-03-09 07:29:00,30.8,22.5,30.21,NNW,347,0.0,5.0,71,0.00,,CLR,0.01,VWS V13.01,2013-03-09 12:29:00,
2013-03-09 07:34:00,31.1,22.5,30.21,NNW,347,2.0,3.0,70,0.00,,CLR,0.01,VWS V13.01,2013-03-09 12:34:00,
2013-03-09 07:39:00,31.5,22.5,30.21,NE,39,2.0,3.0,69,0.00,,CLR,0.01,VWS V13.01,2013-03-09 12:39:00,
2013-03-09 07:44:00,31.8,22.8,30.21,NNE,31,2.0,4.0,69,0.00,,CLR,0.01,VWS V13.01,2013-03-09 12:44:00,
2013-03-09 07:50:00,32.0,22.6,30.21,NNE,24,2.0,5.0,68,0.00,,CLR,0.01,VWS V13.01,2013-03-09 12:50:00,
2013-03-09 07:55:00,32.3,22.6,30.21,NNE,24,2.0,5.0,67,0.00,,CLR,0.01,VWS V13.01,2013-03-09 12:55:00,
2013-03-09 08:00:00,32.5,22.1,30.21,NE,44,4.0,5.0,65,0.00,,CLR,0.01,VWS V13.01,2013-03-09 13:00:00,
2013-03-09 08:05:00,33.0,22.5,30.21,NNE,19,1.0,5.0,65,0.00,,CLR,0.01,VWS V13.01,2013-03-09 13:05:00,
2013-03-09 08:10:00,33.3,22.8,30.21,NNE,29,3.0,5.0,65,0.00,,CLR,0.01,VWS V13.01,2013-03-09 13:10:00,
2013-03-09 08:15:00,33.4,22.5,30.21,NNE,32,0.0,6.0,64,0.00,,CLR,0.01,VWS V13.01,2013-03-09 13:15:00,
2013-03-09 08:20:00,33.6,22.7,30.21,NNE,27,0.0,6.0,64,0.00,,CLR,0.01,VWS V13.01,2013-03-09 13:20:00,
2013-03-09 08:25:00,33.8,22.9,30.21,NNE,27,0.0,6.0,64,0.00,,CLR,0.01,VWS V13.01,2013-03-09 13:25:00,
2013-03-09 08:30:00,34.1,22.8,30.21,NNE,28,1.0,6.0,63,0.00,,CLR,0.01,VWS V13.01,2013-03-09 13:30:00,
2013-03-09 08:35:00,34.5,22.8,30.21,NNE,29,1.0,5.0,62,0.00,,CLR,0.01,VWS V13.01,2013-03-09 13:35:00,
2013-03-09 08:40:00,35.0,23.3,30.21,NNE,15,0.0,6.0,62,0.00,,CLR,0.01,VWS V13.01,2013-03-09 13:40:00,
2013-03-09 08:45:00,35.2,23.9,30.22,NNE,20,4.0,6.0,63,0.00,,CLR,0.01,VWS V13.01,2013-03-09 13:45:00,
2013-03-09 08:50:00,35.7,23.2,30.21,NE,35,0.0,6.0,60,0.00,,CLR,0.01,VWS V13.01,2013-03-09 13:50:00,
2013-03-09 08:55:00,36.1,24.4,30.21,NNE,30,0.0,6.0,62,0.00,,CLR,0.01,VWS V13.01,2013-03-09 13:55:00,
2013-03-09 09:00:00,36.4,24.2,30.22,NE,46,3.0,6.0,61,0.00,,CLR,0.01,VWS V13.01,2013-03-09 14:00:00,
2013-03-09 09:05:00,36.9,23.1,30.22,NE,44,3.0,10.0,57,0.00,,CLR,0.01,VWS V13.01,2013-03-09 14:05:00,
2013-03-09 09:10:00,37.4,24.0,30.22,NE,55,3.0,10.0,58,0.00,,CLR,0.01,VWS V13.01,2013-03-09 14:10:00,
2013-03-09 09:15:00,37.8,24.0,30.22,NNE,28,1.0,11.0,57,0.00,,CLR,0.01,VWS V13.01,2013-03-09 14:15:00,
2013-03-09 09:21:00,38.3,24.0,30.22,NNE,30,2.0,11.0,56,0.00,,CLR,0.01,VWS V13.01,2013-03-09 14:21:00,
2013-03-09 09:26:00,39.1,24.7,30.22,NE,53,3.0,11.0,56,0.00,,CLR,0.01,VWS V13.01,2013-03-09 14:26:00,
2013-03-09 09:31:00,40.1,24.8,30.22,NE,38,5.0,11.0,54,0.00,,CLR,0.01,VWS V13.01,2013-03-09 14:31:00,
2013-03-09 09:36:00,40.9,24.2,30.22,NE,41,9.0,9.0,51,0.00,,CLR,0.01,VWS V13.01,2013-03-09 14:36:00,
2013-03-09 09:41:00,41.4,24.2,30.22,NE,42,0.0,10.0,50,0.00,,CLR,0.01,VWS V13.01,2013-03-09 14:41:00,
2013-03-09 09:46:00,42.3,25.0,30.22,NE,37,4.0,10.0,50,0.00,,CLR,0.01,VWS V13.01,2013-03-09 14:46:00,
2013-03-09 09:51:00,42.9,25.6,30.22,NE,51,1.0,10.0,50,0.01,,CLR,0.02,VWS V13.01,2013-03-09 14:51:00,
2013-03-09 09:56:00,43.2,25.4,30.22,NNE,27,3.0,10.0,49,0.01,,CLR,0.02,VWS V13.01,2013-03-09 14:56:00,
2013-03-09 10:01:00,43.3,24.4,30.21,NNE,21,1.0,10.0,47,0.02,,CLR,0.03,VWS V13.01,2013-03-09 15:01:00,
2013-03-09 10:06:00,43.8,25.4,30.22,NNE,32,2.0,4.0,48,0.03,,CLR,0.04,VWS V13.01,2013-03-09 15:06:00,
2013-03-09 10:11:00,44.4,26.5,30.22,NNE,32,0.0,4.0,49,0.03,,CLR,0.04,VWS V13.01,2013-03-09 15:11:00,
2013-03-09 10:16:00,44.8,24.8,30.21,NNE,32,1.0,4.0,45,0.04,,CLR,0.05,VWS V13.01,2013-03-09 15:16:00,
2013-03-09 10:21:00,44.8,24.2,30.22,NE,38,2.0,10.0,44,0.05,,CLR,0.06,VWS V13.01,2013-03-09 15:21:00,
2013-03-09 10:26:00,44.6,26.1,30.22,NE,48,1.0,10.0,48,0.07,,CLR,0.08,VWS V13.01,2013-03-09 15:26:00,
2013-03-09 10:31:00,45.0,26.5,30.22,North,350,1.0,1.0,48,0.07,,CLR,0.09,VWS V13.01,2013-03-09 15:31:00,
2013-03-09 10:37:00,45.4,23.7,30.22,NE,38,0.0,7.0,42,0.08,,CLR,0.09,VWS V13.01,2013-03-09 15:37:00,
2013-03-09 10:42:00,45.8,25.7,30.22,NW,319,1.0,7.0,45,0.09,,CLR,0.10,VWS V13.01,2013-03-09 15:42:00,
2013-03-09 10:47:00,46.1,25.4,30.22,NNW,333,1.0,7.0,44,0.10,,FEW200,0.12,VWS V13.01,2013-03-09 15:47:00,
2013-03-09 10:52:00,46.4,26.2,30.22,North,9,2.0,7.0,45,0.12,,FEW200,0.13,VWS V13.01,2013-03-09 15:52:00,
2013-03-09 10:57:00,46.7,26.0,30.22,NNE,23,0.0,7.0,44,0.13,,FEW200,0.14,VWS V13.01,2013-03-09 15:57:00,
2013-03-09 11:02:00,46.8,24.9,30.22,WNW,303,4.0,5.0,42,0.12,,FEW200,0.15,VWS V13.01,2013-03-09 16:02:00,
2013-03-09 11:07:00,46.7,24.3,30.22,NNE,24,1.0,5.0,41,0.14,,FEW200,0.17,VWS V13.01,2013-03-09 16:07:00,
2013-03-09 11:12:00,46.4,25.1,30.22,NE,37,3.0,9.0,43,0.15,,FEW200,0.18,VWS V13.01,2013-03-09 16:12:00,
2013-03-09 11:17:00,46.3,25.0,30.22,NW,317,1.0,9.0,43,0.16,,FEW200,0.19,VWS V13.01,2013-03-09 16:17:00,
2013-03-09 11:22:00,46.5,25.2,30.22,North,360,0.0,9.0,43,0.17,,FEW200,0.20,VWS V13.01,2013-03-09 16:22:00,
2013-03-09 11:27:00,46.6,24.8,30.22,NNE,22,0.0,9.0,42,0.18,,FEW200,0.21,VWS V13.01,2013-03-09 16:27:00,
2013-03-09 11:32:00,46.7,24.8,30.22,NE,43,0.0,4.0,42,0.14,,FEW200,0.22,VWS V13.01,2013-03-09 16:32:00,
2013-03-09 11:38:00,46.7,24.3,30.22,NNW,343,0.0,4.0,41,0.15,,FEW200,0.23,VWS V13.01,2013-03-09 16:38:00,
2013-03-09 11:43:00,46.7,24.8,30.22,North,9,0.0,5.0,42,0.15,,FEW200,0.23,VWS V13.01,2013-03-09 16:43:00,
2013-03-09 11:48:00,46.8,25.5,30.22,North,5,0.0,5.0,43,0.16,,FEW200,0.24,VWS V13.01,2013-03-09 16:48:00,
2013-03-09 11:53:00,46.9,25.0,30.23,NNE,25,0.0,6.0,42,0.17,,FEW200,0.25,VWS V13.01,2013-03-09 16:53:00,
2013-03-09 11:58:00,47.2,24.7,30.23,NNW,343,0.0,6.0,41,0.18,,FEW200,0.26,VWS V13.01,2013-03-09 16:58:00,
2013-03-09 12:03:00,47.4,23.1,30.22,ENE,62,4.0,6.0,38,0.11,,FEW200,0.27,VWS V13.01,2013-03-09 17:03:00,
2013-03-09 12:08:00,47.5,23.8,30.23,NW,325,0.0,6.0,39,0.12,,FEW200,0.27,VWS V13.01,2013-03-09 17:08:00,
2013-03-09 12:13:00,47.6,25.7,30.22,NNE,18,2.0,6.0,42,0.13,,FEW200,0.28,VWS V13.01,2013-03-09 17:13:00,
2013-03-09 12:18:00,47.9,24.8,30.22,North,11,1.0,6.0,40,0.14,,FEW200,0.29,VWS V13.01,2013-03-09 17:18:00,
2013-03-09 12:23:00,48.1,23.7,30.22,NE,36,3.0,6.0,38,0.15,,FEW200,0.30,VWS V13.01,2013-03-09 17:23:00,
2013-03-09 12:28:00,48.1,22.4,30.22,NE,39,2.0,6.0,36,0.16,,FEW200,0.31,VWS V13.01,2013-03-09 17:28:00,
2013-03-09 12:33:00,48.1,24.3,30.22,NNW,327,0.0,4.0,39,0.10,,FEW200,0.32,VWS V13.01,2013-03-09 17:33:00,
2013-03-09 12:38:00,48.3,24.5,30.22,NW,323,1.0,4.0,39,0.11,,FEW200,0.33,VWS V13.01,2013-03-09 17:38:00,
2013-03-09 12:43:00,48.4,24.0,30.22,NNE,26,2.0,4.0,38,0.11,,FEW200,0.33,VWS V13.01,2013-03-09 17:43:00,
2013-03-09 12:48:00,48.7,25.5,30.21,NNE,26,2.0,4.0,40,0.12,,FEW200,0.34,VWS V13.01,2013-03-09 17:48:00,
2013-03-09 12:54:00,48.7,24.2,30.21,NE,41,1.0,5.0,38,0.13,,FEW200,0.35,VWS V13.01,2013-03-09 17:54:00,
2013-03-09 12:59:00,48.8,25.0,30.21,NNE,31,5.0,6.0,39,0.14,,FEW200,0.36,VWS V13.01,2013-03-09 17:59:00,
2013-03-09 13:04:00,48.9,23.8,30.21,NE,42,0.0,5.0,37,0.11,,FEW200,0.37,VWS V13.01,2013-03-09 18:04:00,
2013-03-09 13:09:00,49.1,25.8,30.21,North,9,1.0,5.0,40,0.11,,FEW200,0.38,VWS V13.01,2013-03-09 18:09:00,
2013-03-09 13:14:00,49.1,23.3,30.21,NE,37,0.0,5.0,36,0.12,,FEW200,0.38,VWS V13.01,2013-03-09 18:14:00,
2013-03-09 13:19:00,49.3,25.4,30.21,NE,37,0.0,5.0,39,0.13,,FEW200,0.40,VWS V13.01,2013-03-09 18:19:00,
2013-03-09 13:24:00,49.8,25.9,30.21,NE,40,4.0,5.0,39,0.14,,FEW200,0.40,VWS V13.01,2013-03-09 18:24:00,
2013-03-09 13:29:00,50.1,25.5,30.21,NNW,336,0.0,5.0,38,0.14,,FEW200,0.40,VWS V13.01,2013-03-09 18:29:00,
2013-03-09 13:34:00,50.3,25.7,30.20,NNW,337,0.0,4.0,38,0.09,,FEW200,0.40,VWS V13.01,2013-03-09 18:34:00,
2013-03-09 13:39:00,50.4,23.1,30.20,ENE,57,0.0,4.0,34,0.09,,FEW200,0.40,VWS V13.01,2013-03-09 18:39:00,
2013-03-09 13:44:00,50.2,23.6,30.20,NNE,14,0.0,4.0,35,0.10,,FEW200,0.41,VWS V13.01,2013-03-09 18:44:00,
2013-03-09 13:49:00,50.2,25.0,30.20,NNE,26,2.0,5.0,37,0.10,,CLR,0.41,VWS V13.01,2013-03-09 18:49:00,
2013-03-09 13:54:00,50.2,25.0,30.20,NE,36,1.0,5.0,37,0.11,,CLR,0.42,VWS V13.01,2013-03-09 18:54:00,
2013-03-09 13:59:00,50.0,24.8,30.20,NE,36,0.0,5.0,37,0.11,,CLR,0.43,VWS V13.01,2013-03-09 18:59:00,
2013-03-09 14:04:00,50.1,24.9,30.20,NE,37,1.0,3.0,37,0.07,,CLR,0.43,VWS V13.01,2013-03-09 19:04:00,
2013-03-09 14:10:00,50.4,24.5,30.20,West,277,0.0,4.0,36,0.08,,CLR,0.44,VWS V13.01,2013-03-09 19:10:00,
2013-03-09 14:15:00,50.7,26.0,30.20,NE,42,1.0,4.0,38,0.08,,CLR,0.44,VWS V13.01,2013-03-09 19:15:00,
2013-03-09 14:20:00,51.0,25.0,30.20,NE,42,0.0,4.0,36,0.09,,CLR,0.45,VWS V13.01,2013-03-09 19:20:00,
2013-03-09 14:25:00,51.4,24.0,30.20,NNE,32,0.0,5.0,34,0.09,,CLR,0.46,VWS V13.01,2013-03-09 19:25:00,
2013-03-09 14:30:00,51.7,24.3,30.20,NNE,32,0.0,5.0,34,0.10,,CLR,0.46,VWS V13.01,2013-03-09 19:30:00,
2013-03-09 14:35:00,51.7,26.3,30.20,NE,53,1.0,3.0,37,0.06,,CLR,0.47,VWS V13.01,2013-03-09 19:35:00,
2013-03-09 14:40:00,51.4,27.9,30.20,NNE,16,0.0,3.0,40,0.07,,CLR,0.47,VWS V13.01,2013-03-09 19:40:00,
2013-03-09 14:45:00,50.3,29.2,30.20,East,95,0.0,3.0,44,0.07,,CLR,0.47,VWS V13.01,2013-03-09 19:45:00,
2013-03-09 14:50:00,49.0,29.1,30.20,East,95,1.0,3.0,46,0.08,,CLR,0.48,VWS V13.01,2013-03-09 19:50:00,
2013-03-09 14:55:00,47.9,29.2,30.20,East,95,0.0,3.0,48,0.08,,CLR,0.48,VWS V13.01,2013-03-09 19:55:00,
2013-03-09 15:00:00,47.2,29.0,30.20,East,95,1.0,3.0,49,0.08,,CLR,0.48,VWS V13.01,2013-03-09 20:00:00,
2013-03-09 15:05:00,46.9,29.2,30.20,East,101,2.0,3.0,50,0.05,,CLR,0.49,VWS V13.01,2013-03-09 20:05:00,
2013-03-09 15:11:00,46.5,29.8,30.20,East,101,0.0,3.0,52,0.06,,CLR,0.49,VWS V13.01,2013-03-09 20:11:00,
2013-03-09 15:16:00,46.2,29.1,30.21,ESE,103,1.0,3.0,51,0.06,,CLR,0.49,VWS V13.01,2013-03-09 20:16:00,
2013-03-09 15:21:00,46.4,29.3,30.21,ESE,103,0.0,3.0,51,0.06,,CLR,0.49,VWS V13.01,2013-03-09 20:21:00,
2013-03-09 15:26:00,46.3,29.2,30.21,ESE,103,0.0,3.0,51,0.06,,CLR,0.49,VWS V13.01,2013-03-09 20:26:00,
2013-03-09 15:31:00,46.1,29.5,30.20,ENE,76,0.0,3.0,52,0.06,,CLR,0.49,VWS V13.01,2013-03-09 20:31:00,
2013-03-09 15:36:00,46.0,30.3,30.20,ESE,103,1.0,4.0,54,0.03,,CLR,0.49,VWS V13.01,2013-03-09 20:36:00,
2013-03-09 15:41:00,45.9,31.5,30.21,ESE,103,2.0,4.0,57,0.03,,CLR,0.49,VWS V13.01,2013-03-09 20:41:00,
2013-03-09 15:46:00,45.5,32.0,30.21,SE,134,0.0,4.0,59,0.03,,CLR,0.49,VWS V13.01,2013-03-09 20:46:00,
2013-03-09 15:51:00,45.1,32.1,30.21,SE,134,1.0,4.0,60,0.03,,CLR,0.49,VWS V13.01,2013-03-09 20:51:00,
2013-03-09 15:56:00,44.4,31.8,30.22,SE,134,1.0,4.0,61,0.03,,CLR,0.49,VWS V13.01,2013-03-09 20:56:00,
2013-03-09 16:01:00,43.7,31.5,30.22,SE,134,0.0,0.0,62,0.03,,CLR,0.49,VWS V13.01,2013-03-09 21:01:00,
2013-03-09 16:06:00,43.0,31.7,30.22,SE,134,1.0,3.0,64,0.01,,CLR,0.49,VWS V13.01,2013-03-09 21:06:00,
2013-03-09 16:11:00,42.4,31.9,30.22,SE,133,0.0,3.0,66,0.02,,CLR,0.50,VWS V13.01,2013-03-09 21:11:00,
2013-03-09 16:16:00,41.8,31.7,30.23,SE,134,0.0,3.0,67,0.02,,CLR,0.50,VWS V13.01,2013-03-09 21:16:00,
2013-03-09 16:21:00,41.4,31.6,30.23,SE,133,0.0,3.0,68,0.02,,CLR,0.50,VWS V13.01,2013-03-09 21:21:00,
2013-03-09 16:26:00,40.9,31.9,30.23,SE,134,2.0,3.0,70,0.02,,CLR,0.50,VWS V13.01,2013-03-09 21:26:00,
2013-03-09 16:32:00,40.6,31.6,30.23,SE,133,0.0,1.0,70,0.02,,CLR,0.50,VWS V13.01,2013-03-09 21:32:00,
2013-03-09 16:37:00,40.1,31.5,30.23,SE,133,0.0,3.0,71,0.01,,CLR,0.50,VWS V13.01,2013-03-09 21:37:00,
2013-03-09 16:42:00,39.7,31.4,30.23,SE,134,0.0,3.0,72,0.01,,CLR,0.50,VWS V13.01,2013-03-09 21:42:00,
2013-03-09 16:47:00,39.3,31.4,30.24,SE,134,0.0,3.0,73,0.01,,CLR,0.50,VWS V13.01,2013-03-09 21:47:00,
2013-03-09 16:52:00,39.0,31.4,30.24,SE,134,0.0,3.0,74,0.01,,CLR,0.50,VWS V13.01,2013-03-09 21:52:00,
2013-03-09 16:57:00,38.7,31.5,30.24,SE,134,1.0,3.0,75,0.01,,CLR,0.50,VWS V13.01,2013-03-09 21:57:00,
2013-03-09 17:02:00,38.4,31.5,30.24,SE,133,0.0,0.0,76,0.01,,CLR,0.50,VWS V13.01,2013-03-09 22:02:00,
2013-03-09 17:07:00,38.1,31.2,30.25,SE,134,0.0,2.0,76,0.01,,CLR,0.50,VWS V13.01,2013-03-09 22:07:00,
2013-03-09 17:12:00,37.9,31.4,30.25,SE,134,0.0,2.0,77,0.01,,CLR,0.50,VWS V13.01,2013-03-09 22:12:00,
2013-03-09 17:17:00,37.6,31.4,30.25,SE,134,0.0,2.0,78,0.01,,CLR,0.50,VWS V13.01,2013-03-09 22:17:00,
2013-03-09 17:22:00,37.3,31.4,30.25,SE,134,0.0,2.0,79,0.01,,CLR,0.50,VWS V13.01,2013-03-09 22:22:00,
2013-03-09 17:27:00,37.0,31.1,30.26,SE,134,0.0,2.0,79,0.01,,CLR,0.50,VWS V13.01,2013-03-09 22:27:00,
2013-03-09 17:32:00,36.6,30.7,30.26,SE,134,0.0,0.0,79,0.00,,CLR,0.50,VWS V13.01,2013-03-09 22:32:00,
2013-03-09 17:37:00,36.4,30.8,30.26,SE,134,0.0,0.0,80,0.00,,CLR,0.50,VWS V13.01,2013-03-09 22:37:00,
2013-03-09 17:43:00,36.1,30.8,30.26,SE,134,0.0,0.0,81,0.00,,CLR,0.50,VWS V13.01,2013-03-09 22:43:00,
2013-03-09 17:48:00,35.8,30.5,30.26,SE,134,0.0,1.0,81,0.00,,CLR,0.50,VWS V13.01,2013-03-09 22:48:00,
2013-03-09 17:53:00,35.5,30.6,30.27,SE,134,0.0,1.0,82,0.00,,CLR,0.50,VWS V13.01,2013-03-09 22:53:00,
2013-03-09 17:58:00,35.3,30.7,30.27,SE,134,0.0,1.0,83,0.00,,CLR,0.50,VWS V13.01,2013-03-09 22:58:00,
2013-03-09 18:03:00,35.1,30.5,30.27,SE,134,0.0,0.0,83,0.00,,CLR,0.50,VWS V13.01,2013-03-09 23:03:00,
2013-03-09 18:08:00,34.8,30.2,30.27,SE,134,0.0,0.0,83,0.00,,CLR,0.50,VWS V13.01,2013-03-09 23:08:00,
2013-03-09 18:13:00,34.6,30.3,30.27,SE,134,0.0,0.0,84,0.00,,CLR,0.50,VWS V13.01,2013-03-09 23:13:00,
2013-03-09 18:18:00,34.3,30.3,30.27,SE,134,1.0,1.0,85,0.00,,CLR,0.50,VWS V13.01,2013-03-09 23:18:00,
2013-03-09 18:23:00,34.0,30.0,30.27,SE,134,0.0,1.0,85,0.00,,CLR,0.50,VWS V13.01,2013-03-09 23:23:00,
2013-03-09 18:28:00,33.8,30.1,30.28,SE,134,0.0,1.0,86,0.00,,CLR,0.50,VWS V13.01,2013-03-09 23:28:00,
2013-03-09 18:33:00,33.5,29.8,30.27,SE,134,0.0,1.0,86,0.00,,CLR,0.50,VWS V13.01,2013-03-09 23:33:00,
2013-03-09 18:38:00,33.3,29.9,30.27,SE,134,0.0,1.0,87,0.00,,CLR,0.50,VWS V13.01,2013-03-09 23:38:00,
2013-03-09 18:43:00,33.1,29.7,30.28,SE,134,0.0,1.0,87,0.00,,CLR,0.50,VWS V13.01,2013-03-09 23:43:00,
2013-03-09 18:48:00,32.9,29.7,30.28,SE,134,0.0,1.0,88,0.00,,CLR,0.50,VWS V13.01,2013-03-09 23:48:00,
2013-03-09 18:53:00,32.6,29.5,30.28,SE,134,0.0,1.0,88,0.00,,CLR,0.50,VWS V13.01,2013-03-09 23:53:00,
2013-03-09 18:59:00,32.5,29.4,30.28,SE,134,0.0,1.0,88,0.00,,CLR,0.50,VWS V13.01,2013-03-09 23:59:00,
2013-03-09 19:04:00,32.3,29.4,30.28,SE,134,0.0,0.0,89,0.00,,CLR,0.50,VWS V13.01,2013-03-10 00:04:00,
2013-03-09 19:09:00,32.2,29.3,30.29,SE,134,0.0,0.0,89,0.00,,CLR,0.50,VWS V13.01,2013-03-10 00:09:00,
2013-03-09 19:14:00,32.0,29.1,30.29,SE,134,0.0,0.0,89,0.00,,CLR,0.50,VWS V13.01,2013-03-10 00:14:00,
2013-03-09 19:19:00,31.8,29.2,30.28,SE,134,0.0,0.0,90,0.00,,CLR,0.50,VWS V13.01,2013-03-10 00:19:00,
2013-03-09 19:24:00,31.7,29.1,30.29,SE,134,0.0,0.0,90,0.00,,CLR,0.50,VWS V13.01,2013-03-10 00:24:00,
2013-03-09 19:29:00,31.5,28.9,30.29,SE,134,0.0,0.0,90,0.00,,CLR,0.50,VWS V13.01,2013-03-10 00:29:00,
2013-03-09 19:34:00,31.4,29.1,30.29,SE,134,0.0,0.0,91,0.00,,CLR,0.50,VWS V13.01,2013-03-10 00:34:00,
2013-03-09 19:39:00,31.3,29.0,30.28,SE,134,0.0,0.0,91,0.00,,CLR,0.50,VWS V13.01,2013-03-10 00:39:00,
2013-03-09 19:44:00,31.1,28.8,30.29,SE,134,0.0,0.0,91,0.00,,CLR,0.50,VWS V13.01,2013-03-10 00:44:00,
2013-03-09 19:49:00,31.0,29.0,30.29,SE,134,0.0,0.0,92,0.00,,CLR,0.50,VWS V13.01,2013-03-10 00:49:00,
2013-03-09 19:54:00,30.9,28.6,30.30,SE,134,0.0,0.0,91,0.00,,CLR,0.50,VWS V13.01,2013-03-10 00:54:00,
2013-03-09 19:59:00,30.7,28.4,30.30,SE,134,0.0,0.0,91,0.00,,CLR,0.50,VWS V13.01,2013-03-10 00:59:00,
2013-03-09 20:04:00,30.5,28.2,30.30,SE,134,0.0,0.0,91,0.00,,CLR,0.50,VWS V13.01,2013-03-10 01:04:00,
2013-03-09 20:09:00,30.3,28.0,30.30,SE,134,0.0,0.0,91,0.00,,CLR,0.50,VWS V13.01,2013-03-10 01:09:00,
2013-03-09 20:14:00,30.1,27.8,30.30,SE,134,0.0,0.0,91,0.00,,CLR,0.50,VWS V13.01,2013-03-10 01:14:00,
2013-03-09 20:19:00,29.8,27.5,30.31,SE,134,0.0,0.0,91,0.00,,CLR,0.50,VWS V13.01,2013-03-10 01:19:00,
2013-03-09 20:24:00,29.6,27.6,30.31,SE,134,0.0,0.0,92,0.00,,CLR,0.50,VWS V13.01,2013-03-10 01:24:00,
2013-03-09 20:29:00,29.4,27.4,30.31,SE,134,0.0,0.0,92,0.00,,CLR,0.50,VWS V13.01,2013-03-10 01:29:00,
2013-03-09 20:34:00,29.3,27.5,30.30,SE,134,0.0,0.0,93,0.00,,CLR,0.50,VWS V13.01,2013-03-10 01:34:00,
2013-03-09 20:39:00,29.2,27.4,30.30,SE,134,0.0,0.0,93,0.00,,CLR,0.50,VWS V13.01,2013-03-10 01:39:00,
2013-03-09 20:44:00,29.1,27.3,30.31,SE,134,0.0,0.0,93,0.00,,CLR,0.50,VWS V13.01,2013-03-10 01:44:00,
2013-03-09 20:50:00,28.9,27.1,30.31,SE,134,0.0,0.0,93,0.00,,CLR,0.50,VWS V13.01,2013-03-10 01:50:00,
2013-03-09 20:55:00,28.8,27.0,30.31,SE,134,0.0,0.0,93,0.00,,CLR,0.50,VWS V13.01,2013-03-10 01:55:00,
2013-03-09 21:00:00,28.7,26.9,30.32,SE,134,0.0,0.0,93,0.00,,CLR,0.50,VWS V13.01,2013-03-10 02:00:00,
2013-03-09 21:05:00,28.5,26.7,30.32,SE,134,0.0,0.0,93,0.00,,CLR,0.50,VWS V13.01,2013-03-10 02:05:00,
2013-03-09 21:10:00,28.4,26.9,30.32,SE,134,0.0,1.0,94,0.00,,CLR,0.50,VWS V13.01,2013-03-10 02:10:00,
2013-03-09 21:15:00,28.4,27.1,30.32,SE,134,0.0,1.0,95,0.00,,CLR,0.50,VWS V13.01,2013-03-10 02:15:00,
2013-03-09 21:20:00,28.4,26.9,30.32,SE,134,0.0,1.0,94,0.00,,CLR,0.50,VWS V13.01,2013-03-10 02:20:00,
2013-03-09 21:25:00,28.2,26.7,30.32,SE,134,0.0,1.0,94,0.00,,CLR,0.50,VWS V13.01,2013-03-10 02:25:00,
2013-03-09 21:30:00,28.1,26.6,30.32,SE,134,0.0,1.0,94,0.00,,CLR,0.50,VWS V13.01,2013-03-10 02:30:00,
2013-03-09 21:35:00,28.1,26.6,30.32,SE,134,0.0,0.0,94,0.00,,CLR,0.50,VWS V13.01,2013-03-10 02:35:00,
2013-03-09 21:40:00,27.8,26.3,30.32,SE,134,0.0,0.0,94,0.00,,CLR,0.50,VWS V13.01,2013-03-10 02:40:00,
2013-03-09 21:45:00,27.5,25.8,30.32,SE,134,0.0,0.0,93,0.00,,CLR,0.50,VWS V13.01,2013-03-10 02:45:00,
2013-03-09 21:50:00,27.2,25.5,30.32,SE,134,0.0,0.0,93,0.00,,CLR,0.50,VWS V13.01,2013-03-10 02:50:00,
2013-03-09 21:55:00,27.1,25.6,30.31,SE,134,0.0,0.0,94,0.00,,CLR,0.50,VWS V13.01,2013-03-10 02:55:00,
2013-03-09 22:00:00,27.0,25.5,30.31,SE,134,0.0,0.0,94,0.00,,CLR,0.50,VWS V13.01,2013-03-10 03:00:00,
2013-03-09 22:05:00,26.8,25.3,30.31,SE,134,0.0,0.0,94,0.00,,CLR,0.50,VWS V13.01,2013-03-10 03:05:00,
2013-03-09 22:11:00,26.6,25.1,30.31,SE,134,0.0,0.0,94,0.00,,CLR,0.50,VWS V13.01,2013-03-10 03:11:00,
2013-03-09 22:16:00,26.4,24.9,30.31,SE,134,0.0,0.0,94,0.00,,CLR,0.50,VWS V13.01,2013-03-10 03:16:00,
2013-03-09 22:21:00,26.3,24.8,30.31,SE,134,0.0,0.0,94,0.00,,CLR,0.50,VWS V13.01,2013-03-10 03:21:00,
2013-03-09 22:26:00,26.2,25.0,30.31,SE,134,0.0,0.0,95,0.00,,CLR,0.50,VWS V13.01,2013-03-10 03:26:00,
2013-03-09 22:31:00,26.0,24.5,30.31,SE,134,0.0,0.0,94,0.00,,CLR,0.50,VWS V13.01,2013-03-10 03:31:00,
2013-03-09 22:36:00,25.9,24.4,30.31,SE,134,0.0,0.0,94,0.00,,CLR,0.50,VWS V13.01,2013-03-10 03:36:00,
2013-03-09 22:41:00,25.8,24.6,30.31,SE,134,0.0,0.0,95,0.00,,CLR,0.50,VWS V13.01,2013-03-10 03:41:00,
2013-03-09 22:46:00,25.8,24.6,30.31,SE,134,0.0,0.0,95,0.00,,CLR,0.50,VWS V13.01,2013-03-10 03:46:00,
2013-03-09 22:51:00,25.7,24.5,30.31,SE,134,0.0,0.0,95,0.00,,CLR,0.50,VWS V13.01,2013-03-10 03:51:00,
2013-03-09 22:56:00,25.6,24.4,30.31,SE,134,0.0,0.0,95,0.00,,CLR,0.50,VWS V13.01,2013-03-10 03:56:00,
2013-03-09 23:01:00,25.4,24.2,30.31,SE,134,0.0,0.0,95,0.00,,CLR,0.50,VWS V13.01,2013-03-10 04:01:00,
2013-03-09 23:07:00,25.3,24.1,30.32,SE,134,0.0,0.0,95,0.00,,CLR,0.50,VWS V13.01,2013-03-10 04:07:00,
2013-03-09 23:12:00,25.2,24.0,30.32,SE,134,0.0,0.0,95,0.00,,CLR,0.50,VWS V13.01,2013-03-10 04:12:00,
2013-03-09 23:17:00,25.2,24.0,30.32,SE,134,0.0,0.0,95,0.00,,CLR,0.50,VWS V13.01,2013-03-10 04:17:00,
2013-03-09 23:22:00,25.1,23.9,30.32,SE,134,0.0,0.0,95,0.00,,CLR,0.50,VWS V13.01,2013-03-10 04:22:00,
2013-03-09 23:27:00,24.9,23.4,30.32,SE,134,0.0,0.0,94,0.00,,CLR,0.50,VWS V13.01,2013-03-10 04:27:00,
2013-03-09 23:32:00,24.7,23.2,30.32,SE,134,0.0,0.0,94,0.00,,CLR,0.50,VWS V13.01,2013-03-10 04:32:00,
2013-03-09 23:37:00,24.5,23.3,30.32,SE,134,0.0,0.0,95,0.00,,CLR,0.50,VWS V13.01,2013-03-10 04:37:00,
2013-03-09 23:42:00,24.3,22.8,30.32,SE,134,0.0,0.0,94,0.00,,CLR,0.50,VWS V13.01,2013-03-10 04:42:00,
2013-03-09 23:47:00,24.1,22.6,30.32,SE,134,0.0,0.0,94,0.00,,,0.50,VWS V13.01,2013-03-10 04:47:00,
2013-03-09 23:52:00,24.1,22.9,30.33,SE,134,0.0,0.0,95,0.00,,,0.50,VWS V13.01,2013-03-10 04:52:00,
2013-03-09 23:57:00,24.0,22.8,30.33,SE,134,0.0,0.0,95,0.00,,,0.50,VWS V13.01,2013-03-10 04:57:00,